Terminal Aerodrome Forecast
Issued by NWS

Home | Current Version | Previous Version | Text Only | Print | Product List | Glossary On
Versions: 1 2 3 4 5 6 7 8 9 10 11 12 13 14
000
FTUS43 KUNR 022300
TAFGCC
TAF
KGCC 022320Z 0300/0324 18008KT P6SM SCT250
     FM031500 22010KT P6SM SKC=

USA.gov is the U.S. government's official web portal to all federal, state and local government web resources and services.